Gonets-M No. 27L

operational
NORAD ID: 46486 Int'l Des: 2020-068 Owner: GONETS Country: RU
LEOCIRCULARPOLAR

About Gonets-M No. 27L

Description loading...

Live Position

Loading 3D Globe...

Upcoming Passes

Altitude History

Altitude vs Time

uPlot chart will show altitude changes over time

Two-Line Element Set

1 46486U 20068A 26061.22735596 .00000057 00000-0 34022-3 0 9994
2 46486 82.4942 54.0338 0021267 269.3384 90.5258 12.42869145245872
Epoch: Mar 2, 2026 • Age: 36 hours

Current Status

Altitude 1506.1 km
Velocity 7.12 km/s
Sub-Earth Point -81.19°S, 15.51°E
Launch Date Sep 28, 2020
Age 5.4 years
Type other

Technical Details

Classification Payload
Mass 225.00 kg
Dry Mass 225.00 kg
Total Mass 225.00 kg
Length 1.60 m
Diameter 0.80 m
Span 7.00 m
Shape Cyl + Ant
Manufacturer RESH
Bus Type Strela-3M
Phase Status In Orbit
Owner/State GONETS/RU

Large Constellations

Loading constellations...